Spencer, VA

8:11 AM EDT on September 29, 2016 (GMT -0400)
Blue Ridge

Weather History for KMTV - July, 2013

Change the Weather History Date:

Sunday, July 7, 2013

  Actual Average (KGSO) Record (KGSO)
Temperature  
Mean Temperature 78 °F 78 °F  
Max Temperature 86 °F 88 °F 101 °F (1977)
Min Temperature 69 °F 69 °F 51 °F (1972)
Degree Days  
Heating Degree Days 0 0  
Month to date heating degree days 0  
Since 1 June heating degree days 6  
Since 1 July heating degree days 0  
Cooling Degree Days 12 14  
Month to date cooling degree days 92  
Year to date cooling degree days 558  
Since 1 June cooling degree days 399  
Growing Degree Days 28 (Base 50)    
Moisture  
Dew Point 71 °F    
Average Humidity 88    
Maximum Humidity 98    
Minimum Humidity 61    
Precipitation  
Precipitation 0.80 in 0.13 in 1.88 in (1949)
Month to date precipitation 0.88  
Year to date precipitation 21.31  
Sea Level Pressure  
Sea Level Pressure 30.19 in    
Wind  
Wind Speed 1 mph (SW)    
Max Wind Speed 8 mph    
Max Gust Speed -    
Visibility 8 miles    
Events Fog , Rain , Thunderstorm    
T = Trace of Precipitation, MM = Missing Value Source: NWS Daily Summary

Daily Weather History Graph

Daily Weather History Graph

Search for Another Location

Airport or City:

Trip Planner

Search our weather history database for the weather conditions in past years. The results will help you decide how hot, cold, wet, or windy it might be!

Date:

Astronomy

Jul. 07, 2013 Rise Set
Actual Time 6:08 AM EDT 8:41 PM EDT
Civil Twilight 5:38 AM EDT 9:11 PM EDT
Nautical Twilight 5:00 AM EDT 9:49 PM EDT
Astronomical Twilight 4:18 AM EDT 10:30 PM EDT
Moon 5:41 AM EDT (7/7) 8:06 PM EDT (7/7)
Length of Visible Light 15h 33m
Length of Day
14h 33m
Waning Crescent, 0% of the Moon is Illuminated
Jul 7
Waning Crescent
Jul 8
New
Jul 15
First Quarter
Jul 22
Full
Jul 29
Last Quarter

Hourly Weather History & Observations

Time (EDT) Temp. Heat Index Dew Point Humidity Pressure Visibility Wind Dir Wind Speed Gust Speed Precip Events Conditions
12:15 AM 71.6 °F - 70.7 °F 97% 30.24 in 5.0 mi Calm Calm - N/A   Overcast
12:35 AM 71.6 °F - 70.7 °F 97% 30.23 in 10.0 mi Calm Calm - N/A   Overcast
12:55 AM 71.6 °F - 70.7 °F 97% 30.23 in 10.0 mi Calm Calm - N/A   Mostly Cloudy
1:15 AM 71.2 °F - 70.2 °F 96% 30.23 in 7.0 mi Calm Calm - N/A   Mostly Cloudy
1:35 AM 71.1 °F - 70.2 °F 97% 30.22 in 7.0 mi Calm Calm - N/A   Mostly Cloudy
1:55 AM 70.7 °F - 69.6 °F 96% 30.22 in 4.0 mi Calm Calm - N/A   Scattered Clouds
2:15 AM 70.3 °F - 69.4 °F 97% 30.22 in 1.5 mi Calm Calm - N/A   Mist
2:35 AM 70.0 °F - 69.1 °F 97% 30.22 in 0.5 mi Calm Calm - N/A Fog Fog
2:55 AM 69.8 °F - 69.1 °F 98% 30.21 in 1.2 mi Calm Calm - N/A   Overcast
3:15 AM 69.8 °F - 68.9 °F 97% 30.20 in 0.8 mi Calm Calm - N/A   Overcast
3:35 AM 69.8 °F - 68.9 °F 97% 30.20 in 0.2 mi Calm Calm - N/A Fog Fog
3:55 AM 69.8 °F - 68.9 °F 97% 30.20 in 1.2 mi Calm Calm - N/A   Overcast
4:15 AM 70.7 °F - 69.8 °F 97% 30.19 in 10.0 mi Calm Calm - N/A   Overcast
4:35 AM 70.7 °F - 69.8 °F 97% 30.19 in 7.0 mi Calm Calm - N/A   Overcast
4:55 AM 70.7 °F - 69.8 °F 97% 30.19 in 10.0 mi Calm Calm - N/A   Overcast
5:15 AM 70.7 °F - 69.8 °F 97% 30.19 in 7.0 mi Calm Calm - N/A   Overcast
5:35 AM 70.7 °F - 69.8 °F 97% 30.20 in 7.0 mi Calm Calm - N/A   Overcast
5:55 AM 70.7 °F - 69.8 °F 97% 30.20 in 7.0 mi Calm Calm - N/A   Scattered Clouds
6:15 AM 71.1 °F - 70.2 °F 97% 30.20 in 7.0 mi Calm Calm - N/A   Overcast
6:35 AM 71.2 °F - 70.2 °F 96% 30.20 in 7.0 mi Calm Calm - N/A   Overcast
6:55 AM 71.2 °F - 70.3 °F 97% 30.20 in 7.0 mi Calm Calm - N/A   Scattered Clouds
7:15 AM 72.0 °F - 70.9 °F 96% 30.20 in 7.0 mi Calm Calm - 0.01 in   Clear
7:35 AM 73.0 °F - 71.6 °F 95% 30.20 in 10.0 mi Calm Calm - 0.01 in   Mostly Cloudy
7:55 AM 73.4 °F - 71.4 °F 93% 30.21 in 10.0 mi Calm Calm - 0.01 in   Overcast
8:15 AM 73.8 °F - 71.8 °F 93% 30.21 in 10.0 mi Calm Calm - N/A   Overcast
8:35 AM 74.8 °F - 72.1 °F 91% 30.21 in 10.0 mi SSW 3.5 mph - N/A   Overcast
8:55 AM 75.0 °F - 71.8 °F 90% 30.21 in 10.0 mi South 4.6 mph - N/A   Overcast
9:15 AM 76.1 °F - 72.5 °F 89% 30.21 in 10.0 mi SSW 5.8 mph - N/A   Overcast
9:35 AM 77.2 °F - 72.5 °F 85% 30.21 in 10.0 mi SSW 4.6 mph - N/A   Overcast
9:55 AM 78.4 °F - 72.0 °F 80% 30.21 in 10.0 mi SSW 4.6 mph - N/A   Overcast
10:15 AM 77.5 °F - 72.0 °F 83% 30.21 in 10.0 mi SSW 4.6 mph - N/A   Overcast
10:35 AM 78.3 °F - 71.8 °F 80% 30.21 in 10.0 mi SW 4.6 mph - N/A   Overcast
10:55 AM 78.3 °F - 71.6 °F 80% 30.21 in 10.0 mi SSW 5.8 mph - N/A   Overcast
11:15 AM 81.1 °F 85.6 °F 72.1 °F 74% 30.21 in 10.0 mi SSW 5.8 mph - N/A   Overcast
11:35 AM 81.9 °F 86.8 °F 72.5 °F 73% 30.21 in 10.0 mi SSW 5.8 mph - N/A   Overcast
11:55 AM 81.9 °F 86.4 °F 71.8 °F 71% 30.21 in 10.0 mi SW 5.8 mph - N/A   Overcast
12:15 PM 82.9 °F 88.0 °F 72.0 °F 69% 30.20 in 10.0 mi SW 3.5 mph - N/A   Mostly Cloudy
12:35 PM 83.7 °F 88.6 °F 71.2 °F 66% 30.20 in 10.0 mi SSW 5.8 mph - N/A   Overcast
12:55 PM 84.9 °F 91.1 °F 72.5 °F 66% 30.19 in 10.0 mi SSW 3.5 mph - N/A   Mostly Cloudy
1:15 PM 83.8 °F 88.9 °F 71.2 °F 66% 30.18 in 10.0 mi SSW 5.8 mph - N/A   Mostly Cloudy
1:35 PM 83.5 °F 88.8 °F 71.8 °F 68% 30.17 in 10.0 mi Calm Calm - N/A   Mostly Cloudy
1:55 PM 85.6 °F 92.2 °F 72.5 °F 65% 30.17 in 10.0 mi SSW 5.8 mph - N/A   Mostly Cloudy
2:15 PM 86.5 °F 92.5 °F 71.8 °F 61% 30.17 in 10.0 mi SSW 5.8 mph - N/A   Mostly Cloudy
2:35 PM 84.4 °F 90.3 °F 72.3 °F 67% 30.16 in 10.0 mi SW 8.1 mph - N/A   Overcast
2:55 PM 75.0 °F - 71.8 °F 90% 30.17 in 5.0 mi Calm Calm - 0.03 in Rain , Thunderstorm Rain
3:15 PM 73.0 °F - 70.9 °F 93% 30.17 in 0.8 mi Calm Calm - 0.38 in Rain Heavy Rain
3:35 PM 74.1 °F - 72.1 °F 94% 30.16 in 2.5 mi WNW 3.5 mph - 0.53 in Rain Light Rain
3:55 PM 75.4 °F - 72.7 °F 91% 30.16 in 10.0 mi Calm Calm - 0.53 in   Mostly Cloudy
4:15 PM 76.6 °F - 73.4 °F 90% 30.15 in 5.0 mi Calm Calm - 0.02 in Rain Rain
4:35 PM 78.1 °F - 74.5 °F 89% 30.15 in 7.0 mi Calm Calm - 0.03 in Rain Light Rain
4:55 PM 79.9 °F - 74.5 °F 83% 30.15 in 10.0 mi Calm Calm - 0.03 in   Overcast
5:15 PM 81.9 °F 88.0 °F 74.3 °F 78% 30.14 in 10.0 mi Calm Calm - N/A   Mostly Cloudy
5:35 PM 82.4 °F 88.4 °F 73.6 °F 75% 30.13 in 10.0 mi WSW 4.6 mph - N/A   Mostly Cloudy
5:55 PM 81.3 °F 86.5 °F 73.4 °F 77% 30.13 in 10.0 mi Calm Calm - N/A   Mostly Cloudy
6:15 PM 80.1 °F 84.6 °F 74.1 °F 82% 30.13 in 10.0 mi Calm Calm - N/A   Mostly Cloudy
6:35 PM 77.5 °F - 70.9 °F 80% 30.13 in 10.0 mi NW 4.6 mph - N/A   Scattered Clouds
6:55 PM 76.6 °F - 70.5 °F 81% 30.15 in 10.0 mi WNW 8.1 mph - N/A   Mostly Cloudy
7:15 PM 73.6 °F - 68.0 °F 83% 30.16 in 10.0 mi West 5.8 mph - N/A Rain , Thunderstorm Light Thunderstorms and Rain
7:35 PM 70.3 °F - 67.5 °F 91% 30.15 in 3.0 mi WSW 5.8 mph - 0.15 in Rain Rain
7:55 PM 69.8 °F - 67.5 °F 92% 30.14 in 10.0 mi Calm Calm - 0.16 in Rain , Thunderstorm Rain
8:15 PM 69.8 °F - 68.0 °F 94% 30.15 in 10.0 mi Calm Calm - N/A   Overcast
8:35 PM 69.8 °F - 68.0 °F 94% 30.15 in 10.0 mi Calm Calm - 0.01 in Rain , Thunderstorm Rain
8:55 PM 69.8 °F - 68.0 °F 94% 30.16 in 10.0 mi Calm Calm - 0.03 in Rain , Thunderstorm Light Thunderstorms and Rain
9:15 PM 69.6 °F - 68.2 °F 95% 30.17 in 10.0 mi Calm Calm - N/A Rain Light Rain
9:35 PM 69.8 °F - 68.2 °F 95% 30.18 in 10.0 mi Calm Calm - 0.01 in   Mostly Cloudy
9:55 PM 69.8 °F - 68.2 °F 95% 30.18 in 10.0 mi Calm Calm - 0.01 in   Mostly Cloudy
10:15 PM 69.8 °F - 68.5 °F 96% 30.19 in 10.0 mi Calm Calm - N/A   Mostly Cloudy
10:35 PM 69.8 °F - 68.5 °F 96% 30.20 in 10.0 mi Calm Calm - N/A   Overcast
10:55 PM 69.4 °F - 68.4 °F 96% 30.19 in 10.0 mi Calm Calm - N/A   Mostly Cloudy
11:15 PM 69.8 °F - 68.9 °F 97% 30.18 in 10.0 mi Calm Calm - N/A   Mostly Cloudy
11:35 PM 69.8 °F - 68.7 °F 96% 30.18 in 10.0 mi Calm Calm - N/A Thunderstorm Overcast
11:55 PM 69.8 °F - 68.5 °F 96% 30.19 in 10.0 mi SW 3.5 mph - N/A Thunderstorm Overcast